N124MC KMSY-KHUM

Flight info

Callsign N124MC
Flight time 0h 11m
Altitude
Route
Aircraft BE24/L-DOV/C

Departure

Time 2026-05-06 21:28
Airport Louis Armstrong New Orleans International Airport (KMSY)

Arrival

Time 2026-05-06 21:39
Airport Houma Terrebonne Airport (KHUM)
Time Latitude Longitude Altitude Speed Heading
2026-05-06 21:28 29.77876 -90.34143 1508 ft 128 kts 227°
2026-05-06 21:28 29.77340 -90.34952 1509 ft 126 kts 229°
2026-05-06 21:29 29.76811 -90.35752 1506 ft 124 kts 227°
2026-05-06 21:29 29.76292 -90.36533 1508 ft 121 kts 225°
2026-05-06 21:29 29.75781 -90.37304 1509 ft 122 kts 224°
2026-05-06 21:29 29.75257 -90.38090 1514 ft 127 kts 226°
2026-05-06 21:30 29.74717 -90.38904 1509 ft 128 kts 228°
2026-05-06 21:30 29.74183 -90.39711 1505 ft 124 kts 225°
2026-05-06 21:30 29.73666 -90.40492 1519 ft 122 kts 224°
2026-05-06 21:30 29.73149 -90.41270 1519 ft 123 kts 226°
2026-05-06 21:31 29.72625 -90.42058 1512 ft 125 kts 227°
2026-05-06 21:31 29.72105 -90.42844 1514 ft 123 kts 226°
2026-05-06 21:31 29.71588 -90.43622 1522 ft 123 kts 226°
2026-05-06 21:31 29.71067 -90.44405 1520 ft 124 kts 225°
2026-05-06 21:32 29.70551 -90.45184 1518 ft 120 kts 224°
2026-05-06 21:32 29.69532 -90.46714 1424 ft 121 kts 226°
2026-05-06 21:32 29.69028 -90.47476 1356 ft 118 kts 223°
2026-05-06 21:33 29.68528 -90.48228 1283 ft 117 kts 223°
2026-05-06 21:33 29.68034 -90.48969 1207 ft 117 kts 225°
2026-05-06 21:33 29.67532 -90.49721 1140 ft 121 kts 225°
2026-05-06 21:33 29.67022 -90.50487 1068 ft 123 kts 228°
2026-05-06 21:34 29.66545 -90.51297 1005 ft 122 kts 239°
2026-05-06 21:34 29.66204 -90.52179 1008 ft 121 kts 240°
2026-05-06 21:34 29.65880 -90.53085 1002 ft 123 kts 241°
2026-05-06 21:34 29.65519 -90.53978 999 ft 123 kts 236°
2026-05-06 21:35 29.65076 -90.54803 1006 ft 122 kts 228°
2026-05-06 21:35 29.64580 -90.55594 1002 ft 122 kts 227°
2026-05-06 21:35 29.64103 -90.56405 998 ft 122 kts 225°
2026-05-06 21:35 29.63612 -90.57182 1006 ft 120 kts 227°
2026-05-06 21:36 29.63094 -90.57937 1005 ft 120 kts 225°
2026-05-06 21:36 29.62574 -90.58698 1000 ft 120 kts 223°
2026-05-06 21:36 29.62086 -90.59473 1014 ft 119 kts 225°
2026-05-06 21:36 29.61623 -90.60259 910 ft 119 kts 235°
2026-05-06 21:37 29.61242 -90.61047 767 ft 110 kts 232°
2026-05-06 21:37 29.60851 -90.61820 650 ft 108 kts 236°
2026-05-06 21:37 29.60572 -90.62614 562 ft 98 kts 241°
2026-05-06 21:37 29.60366 -90.63275 639 ft 80 kts 236°
2026-05-06 21:38 29.60127 -90.63871 707 ft 87 kts 234°
2026-05-06 21:38 29.59793 -90.64502 677 ft 101 kts 231°
2026-05-06 21:38 29.59541 -90.65247 759 ft 93 kts 245°
2026-05-06 21:38 29.59216 -90.65870 553 ft 92 kts 200°
2026-05-06 21:39 29.58613 -90.66023 342 ft 83 kts 174°
2026-05-06 21:39 29.58134 -90.66035 253 ft 62 kts 168°
2026-05-06 21:39 29.57694 -90.66027 99 ft 65 kts 170°
2026-05-06 21:39 29.57296 -90.66029 12 ft 42 kts 174°
2026-05-06 21:40 29.57063 -90.66027 11 ft 29 kts 181°
2026-05-06 21:40 29.56813 -90.66028 11 ft 35 kts 183°
2026-05-06 21:40 29.56753 -90.66125 10 ft 24 kts 303°
2026-05-06 21:40 29.56904 -90.66366 11 ft 48 kts 307°
2026-05-06 21:41 29.57085 -90.66642 11 ft 32 kts 330°
2026-05-06 21:41 29.57232 -90.66591 9 ft 21 kts 34°
2026-05-06 21:41 29.57318 -90.66490 10 ft 15 kts
2026-05-06 21:41 29.57390 -90.66514 10 ft 9 kts 313°
2026-05-06 21:42 29.57404 -90.66528 10 ft 0 kts 340°